Time,TemperatureF,DewpointF,PressureIn,WindDirection,WindDirectionDegrees,WindSpeedMPH,WindSpeedGustMPH,Humidity,HourlyPrecipIn,Conditions,Clouds,dailyrainin,SoftwareType,DateUTC
2013-08-20 00:00:00,69.3,64.0,29.89,SW,233,1.0,3.0,82,0.00,,,0.00,weatherlink.com 1.10,2013-08-20 04:00:00,
2013-08-20 00:16:00,68.8,63.0,29.89,WSW,240,1.0,2.0,83,0.00,,,0.00,weatherlink.com 1.10,2013-08-20 04:16:00,
2013-08-20 00:32:00,68.3,63.0,29.89,WSW,252,0.0,2.0,84,0.00,,,0.00,weatherlink.com 1.10,2013-08-20 04:32:00,
2013-08-20 00:48:00,67.8,63.0,29.89,WSW,243,0.0,2.0,85,0.00,,,0.00,weatherlink.com 1.10,2013-08-20 04:48:00,
2013-08-20 01:04:00,67.4,63.0,29.89,SSW,206,1.0,3.0,86,0.00,,,0.00,weatherlink.com 1.10,2013-08-20 05:04:00,
2013-08-20 01:20:00,66.8,63.0,29.89,SW,226,0.0,2.0,87,0.00,,,0.00,weatherlink.com 1.10,2013-08-20 05:20:00,
2013-08-20 01:36:00,66.4,63.0,29.90,SW,224,0.0,1.0,88,0.00,,,0.00,weatherlink.com 1.10,2013-08-20 05:36:00,
2013-08-20 01:52:00,66.0,63.0,29.90,SW,236,0.0,1.0,89,0.00,,,0.00,weatherlink.com 1.10,2013-08-20 05:52:00,
2013-08-20 02:07:00,65.7,62.0,29.90,SW,221,0.0,3.0,89,0.00,,,0.00,weatherlink.com 1.10,2013-08-20 06:07:00,
2013-08-20 02:22:00,65.7,63.0,29.89,WSW,243,0.0,2.0,90,0.00,,,0.00,weatherlink.com 1.10,2013-08-20 06:22:00,
2013-08-20 02:38:00,65.4,62.0,29.89,WSW,238,0.0,1.0,90,0.00,,,0.00,weatherlink.com 1.10,2013-08-20 06:38:00,
2013-08-20 02:53:00,65.3,63.0,29.89,WSW,241,0.0,1.0,91,0.00,,,0.00,weatherlink.com 1.10,2013-08-20 06:53:00,
2013-08-20 03:08:00,65.1,62.0,29.89,SW,217,0.0,1.0,91,0.00,,,0.00,weatherlink.com 1.10,2013-08-20 07:08:00,
2013-08-20 03:24:00,64.7,62.0,29.89,SE,144,0.0,1.0,92,0.00,,,0.00,weatherlink.com 1.10,2013-08-20 07:24:00,
2013-08-20 03:40:00,64.2,62.0,29.89,SW,221,0.0,1.0,93,0.00,,,0.00,weatherlink.com 1.10,2013-08-20 07:40:00,
2013-08-20 03:55:00,64.1,62.0,29.89,SSW,208,1.0,1.0,94,0.00,,,0.00,weatherlink.com 1.10,2013-08-20 07:55:00,
2013-08-20 04:10:00,63.9,62.0,29.89,WSW,248,0.0,1.0,94,0.00,,,0.00,weatherlink.com 1.10,2013-08-20 08:10:00,
2013-08-20 04:25:00,64.3,63.0,29.89,WSW,248,1.0,1.0,94,0.00,,,0.00,weatherlink.com 1.10,2013-08-20 08:25:00,
2013-08-20 04:40:00,64.8,63.0,29.89,SW,231,0.0,2.0,93,0.00,,,0.00,weatherlink.com 1.10,2013-08-20 08:40:00,
2013-08-20 04:55:00,64.9,63.0,29.90,WSW,237,0.0,1.0,93,0.00,,,0.00,weatherlink.com 1.10,2013-08-20 08:55:00,
2013-08-20 05:10:00,64.7,63.0,29.90,WSW,240,0.0,1.0,94,0.00,,,0.00,weatherlink.com 1.10,2013-08-20 09:10:00,
2013-08-20 05:25:00,64.5,63.0,29.90,West,267,0.0,1.0,94,0.00,,,0.00,weatherlink.com 1.10,2013-08-20 09:25:00,
2013-08-20 05:40:00,64.5,63.0,29.90,West,271,0.0,1.0,94,0.00,,,0.00,weatherlink.com 1.10,2013-08-20 09:40:00,
2013-08-20 05:56:00,64.7,63.0,29.91,ESE,111,0.0,1.0,94,0.00,,,0.00,weatherlink.com 1.10,2013-08-20 09:56:00,
2013-08-20 06:12:00,64.2,62.0,29.91,South,172,0.0,2.0,94,0.00,,,0.00,weatherlink.com 1.10,2013-08-20 10:12:00,
2013-08-20 06:27:00,63.5,62.0,29.92,South,172,0.0,0.0,95,0.00,,,0.00,weatherlink.com 1.10,2013-08-20 10:27:00,
2013-08-20 06:43:00,63.4,62.0,29.92,South,172,0.0,0.0,96,0.00,,,0.00,weatherlink.com 1.10,2013-08-20 10:43:00,
2013-08-20 06:57:00,62.7,61.0,29.93,SE,135,0.0,1.0,95,0.00,,,0.00,weatherlink.com 1.10,2013-08-20 10:57:00,
2013-08-20 07:11:00,62.7,62.0,29.93,SE,143,0.0,1.0,96,0.00,,,0.00,weatherlink.com 1.10,2013-08-20 11:11:00,
2013-08-20 07:26:00,63.0,62.0,29.93,SE,142,0.0,1.0,97,0.00,,,0.00,weatherlink.com 1.10,2013-08-20 11:26:00,
2013-08-20 07:40:00,63.4,63.0,29.93,SE,142,1.0,1.0,97,0.00,,,0.00,weatherlink.com 1.10,2013-08-20 11:40:00,
2013-08-20 07:55:00,64.7,63.0,29.93,South,181,0.0,3.0,95,0.00,,,0.00,weatherlink.com 1.10,2013-08-20 11:55:00,
2013-08-20 08:09:00,65.4,64.0,29.94,SSE,162,0.0,2.0,94,0.00,,,0.00,weatherlink.com 1.10,2013-08-20 12:09:00,
2013-08-20 08:23:00,66.0,64.0,29.94,SW,226,0.0,2.0,93,0.00,,,0.00,weatherlink.com 1.10,2013-08-20 12:23:00,
2013-08-20 08:38:00,67.2,65.0,29.94,SE,134,1.0,3.0,92,0.00,,,0.00,weatherlink.com 1.10,2013-08-20 12:38:00,
2013-08-20 08:52:00,68.6,66.0,29.94,WSW,237,1.0,2.0,90,0.00,,,0.00,weatherlink.com 1.10,2013-08-20 12:52:00,
2013-08-20 09:07:00,70.0,66.0,29.94,SW,235,0.0,2.0,87,0.00,,,0.00,weatherlink.com 1.10,2013-08-20 13:07:00,
2013-08-20 09:21:00,71.2,66.0,29.94,SSW,204,1.0,2.0,85,0.00,,,0.00,weatherlink.com 1.10,2013-08-20 13:21:00,
2013-08-20 09:35:00,72.4,67.0,29.94,WNW,284,0.0,3.0,82,0.00,,,0.00,weatherlink.com 1.10,2013-08-20 13:35:00,
2013-08-20 09:50:00,73.6,67.0,29.94,West,278,1.0,3.0,79,0.00,,,0.00,weatherlink.com 1.10,2013-08-20 13:50:00,
2013-08-20 10:04:00,74.7,67.0,29.94,SSW,212,0.0,4.0,77,0.00,,,0.00,weatherlink.com 1.10,2013-08-20 14:04:00,
2013-08-20 10:19:00,76.2,68.0,29.94,WSW,251,1.0,2.0,75,0.00,,,0.00,weatherlink.com 1.10,2013-08-20 14:19:00,
2013-08-20 10:33:00,76.9,68.0,29.93,SW,231,3.0,3.0,74,0.00,,,0.00,weatherlink.com 1.10,2013-08-20 14:33:00,
2013-08-20 10:47:00,77.7,68.0,29.93,West,270,1.0,6.0,73,0.00,,,0.00,weatherlink.com 1.10,2013-08-20 14:47:00,
2013-08-20 11:02:00,78.1,68.0,29.93,South,189,3.0,7.0,71,0.00,,,0.00,weatherlink.com 1.10,2013-08-20 15:02:00,
2013-08-20 11:16:00,78.5,69.0,29.93,West,259,0.0,4.0,72,0.00,,,0.00,weatherlink.com 1.10,2013-08-20 15:16:00,
2013-08-20 11:30:00,79.6,70.0,29.93,SSW,203,1.0,5.0,72,0.00,,,0.00,weatherlink.com 1.10,2013-08-20 15:30:00,
2013-08-20 11:44:00,79.6,69.0,29.93,WSW,247,0.0,5.0,69,0.00,,,0.00,weatherlink.com 1.10,2013-08-20 15:44:00,
2013-08-20 11:59:00,80.8,69.0,29.93,SW,219,3.0,4.0,68,0.00,,,0.00,weatherlink.com 1.10,2013-08-20 15:59:00,
2013-08-20 12:13:00,81.6,70.0,29.93,NNW,328,1.0,6.0,67,0.00,,,0.00,weatherlink.com 1.10,2013-08-20 16:13:00,
2013-08-20 12:28:00,82.5,70.0,29.93,South,175,6.0,6.0,65,0.00,,,0.00,weatherlink.com 1.10,2013-08-20 16:28:00,
2013-08-20 12:42:00,82.9,70.0,29.93,WSW,255,1.0,5.0,66,0.00,,,0.00,weatherlink.com 1.10,2013-08-20 16:42:00,
2013-08-20 12:57:00,83.7,69.0,29.92,ESE,122,5.0,7.0,62,0.00,,,0.00,weatherlink.com 1.10,2013-08-20 16:57:00,
2013-08-20 13:11:00,84.5,69.0,29.92,WSW,250,2.0,5.0,59,0.00,,,0.00,weatherlink.com 1.10,2013-08-20 17:11:00,
2013-08-20 13:25:00,85.3,70.0,29.91,SE,127,3.0,7.0,61,0.00,,,0.00,weatherlink.com 1.10,2013-08-20 17:25:00,
2013-08-20 13:40:00,84.7,69.0,29.91,SW,234,3.0,6.0,60,0.00,,,0.00,weatherlink.com 1.10,2013-08-20 17:40:00,
2013-08-20 13:54:00,85.4,69.0,29.91,SSE,167,5.0,6.0,58,0.00,,,0.00,weatherlink.com 1.10,2013-08-20 17:54:00,
2013-08-20 14:08:00,86.5,70.0,29.90,South,173,2.0,8.0,59,0.00,,,0.00,weatherlink.com 1.10,2013-08-20 18:08:00,
2013-08-20 14:23:00,87.1,69.0,29.90,SW,214,4.0,7.0,55,0.00,,,0.00,weatherlink.com 1.10,2013-08-20 18:23:00,
2013-08-20 14:38:00,86.0,69.0,29.90,West,269,2.0,8.0,57,0.00,,,0.00,weatherlink.com 1.10,2013-08-20 18:38:00,
2013-08-20 14:53:00,87.2,69.0,29.89,SW,231,2.0,7.0,54,0.00,,,0.00,weatherlink.com 1.10,2013-08-20 18:53:00,
2013-08-20 15:09:00,88.1,67.0,29.89,SW,227,4.0,8.0,50,0.00,,,0.00,weatherlink.com 1.10,2013-08-20 19:09:00,
2013-08-20 15:24:00,87.0,67.0,29.89,WNW,285,2.0,10.0,51,0.00,,,0.00,weatherlink.com 1.10,2013-08-20 19:24:00,
2013-08-20 15:39:00,88.1,68.0,29.89,SSW,213,3.0,8.0,51,0.00,,,0.00,weatherlink.com 1.10,2013-08-20 19:39:00,
2013-08-20 15:55:00,87.6,71.0,29.89,SE,144,2.0,6.0,58,0.00,,,0.00,weatherlink.com 1.10,2013-08-20 19:55:00,
2013-08-20 16:10:00,87.1,69.0,29.88,South,186,4.0,13.0,56,0.00,,,0.00,weatherlink.com 1.10,2013-08-20 20:10:00,
2013-08-20 16:25:00,85.5,70.0,29.87,WNW,287,3.0,12.0,59,0.00,,,0.00,weatherlink.com 1.10,2013-08-20 20:25:00,
2013-08-20 16:40:00,84.1,69.0,29.87,South,178,4.0,13.0,60,0.00,,,0.00,weatherlink.com 1.10,2013-08-20 20:40:00,
2013-08-20 16:55:00,83.4,69.0,29.87,SW,215,4.0,10.0,61,0.00,,,0.00,weatherlink.com 1.10,2013-08-20 20:55:00,
2013-08-20 17:10:00,83.7,69.0,29.87,South,190,3.0,11.0,62,0.00,,,0.00,weatherlink.com 1.10,2013-08-20 21:10:00,
2013-08-20 17:25:00,83.6,68.0,29.87,South,184,4.0,9.0,60,0.00,,,0.00,weatherlink.com 1.10,2013-08-20 21:25:00,
2013-08-20 17:39:00,83.2,68.0,29.87,SSW,204,3.0,11.0,61,0.00,,,0.00,weatherlink.com 1.10,2013-08-20 21:39:00,
2013-08-20 17:55:00,82.9,68.0,29.87,SSW,199,2.0,9.0,61,0.00,,,0.00,weatherlink.com 1.10,2013-08-20 21:55:00,
2013-08-20 18:09:00,82.7,68.0,29.87,SSW,209,5.0,10.0,61,0.00,,,0.00,weatherlink.com 1.10,2013-08-20 22:09:00,
2013-08-20 18:24:00,82.7,68.0,29.87,SE,141,3.0,7.0,62,0.00,,,0.00,weatherlink.com 1.10,2013-08-20 22:24:00,
2013-08-20 18:39:00,81.9,69.0,29.87,South,179,4.0,10.0,64,0.00,,,0.00,weatherlink.com 1.10,2013-08-20 22:39:00,
2013-08-20 18:53:00,81.2,68.0,29.87,South,191,2.0,8.0,65,0.00,,,0.00,weatherlink.com 1.10,2013-08-20 22:53:00,
2013-08-20 19:08:00,80.4,68.0,29.87,West,281,2.0,7.0,67,0.00,,,0.00,weatherlink.com 1.10,2013-08-20 23:08:00,
2013-08-20 19:24:00,79.6,68.0,29.86,SW,229,1.0,11.0,68,0.00,,,0.00,weatherlink.com 1.10,2013-08-20 23:24:00,
2013-08-20 19:38:00,78.5,67.0,29.87,SSW,199,2.0,9.0,69,0.00,,,0.00,weatherlink.com 1.10,2013-08-20 23:38:00,
2013-08-20 19:53:00,77.3,68.0,29.87,SSW,212,4.0,8.0,72,0.00,,,0.00,weatherlink.com 1.10,2013-08-20 23:53:00,
2013-08-20 20:08:00,76.5,67.0,29.86,SW,217,3.0,6.0,73,0.00,,,0.00,weatherlink.com 1.10,2013-08-21 00:08:00,
2013-08-20 20:22:00,75.8,67.0,29.87,SW,217,2.0,6.0,74,0.00,,,0.00,weatherlink.com 1.10,2013-08-21 00:22:00,
2013-08-20 20:37:00,75.0,67.0,29.87,WSW,252,1.0,4.0,76,0.00,,,0.00,weatherlink.com 1.10,2013-08-21 00:37:00,
2013-08-20 20:52:00,74.3,67.0,29.87,SW,215,2.0,4.0,77,0.00,,,0.00,weatherlink.com 1.10,2013-08-21 00:52:00,
2013-08-20 21:06:00,73.7,66.0,29.87,SW,229,1.0,4.0,78,0.00,,,0.00,weatherlink.com 1.10,2013-08-21 01:06:00,
2013-08-20 21:21:00,73.1,67.0,29.88,SW,224,3.0,5.0,80,0.00,,,0.00,weatherlink.com 1.10,2013-08-21 01:21:00,
2013-08-20 21:35:00,72.5,66.0,29.88,SSE,158,4.0,4.0,81,0.00,,,0.00,weatherlink.com 1.10,2013-08-21 01:35:00,
2013-08-20 21:50:00,72.1,66.0,29.88,SW,223,4.0,5.0,82,0.00,,,0.00,weatherlink.com 1.10,2013-08-21 01:50:00,
2013-08-20 22:05:00,72.0,66.0,29.88,WSW,237,4.0,4.0,82,0.00,,,0.00,weatherlink.com 1.10,2013-08-21 02:05:00,
2013-08-20 22:19:00,71.6,66.0,29.89,SSE,150,1.0,3.0,83,0.00,,,0.00,weatherlink.com 1.10,2013-08-21 02:19:00,
2013-08-20 22:34:00,71.3,66.0,29.89,South,178,1.0,6.0,83,0.00,,,0.00,weatherlink.com 1.10,2013-08-21 02:34:00,
2013-08-20 22:48:00,71.0,66.0,29.89,West,274,2.0,4.0,84,0.00,,,0.00,weatherlink.com 1.10,2013-08-21 02:48:00,
2013-08-20 23:03:00,70.8,66.0,29.89,WNW,295,1.0,4.0,84,0.00,,,0.00,weatherlink.com 1.10,2013-08-21 03:03:00,
2013-08-20 23:17:00,70.6,66.0,29.89,WSW,239,4.0,4.0,85,0.00,,,0.00,weatherlink.com 1.10,2013-08-21 03:17:00,
2013-08-20 23:31:00,70.3,66.0,29.89,WSW,252,1.0,5.0,85,0.00,,,0.00,weatherlink.com 1.10,2013-08-21 03:31:00,
2013-08-20 23:46:00,70.1,66.0,29.89,SE,135,2.0,6.0,86,0.00,,,0.00,weatherlink.com 1.10,2013-08-21 03:46:00,